Location: Newark
(44.3449°N, 4.8694°E)
Time: 14:38:00
(UTC+00:00)

Envisat - Pass Details

Date: 23 January 2020
Orbit: 764 x 766 km, 98.1° (Epoch: 28 February)

Event Time Altitude Azimuth Distance (km) Brightness Sun altitude
Rises 05:45:46 0° 21° (NNE) 3,243 6.3 -14.6°
Reaches altitude 10° 05:48:16 10° 30° (NNE) 2,311 5.7 -14.2°
Maximum altitude 05:52:57 37° 97° (E) 1,188 4.7 -13.4°
Drops below altitude 10° 05:57:37 10° 164° (SSE) 2,294 5.9 -12.6°
Sets 06:00:04 0° 172° (S) 3,215 6.6 -12.2°
